CZ-3C DEB, 40198

Orbit data source: Space-Track

CZ-3C DEB, 40198 is space debris in HEO originally from a launch on Fri, 24 Feb 2012 UTC launched from the Xichang Space Center, China (XSC). Debris objects in space refer to the collection of defunct objects orbiting the Earth. Examples of debris include non-operational satellites, rocket bodies, and fragments generated from explosions, collisions, or faulty payload assembly.

Loading next visibility...
Identifier
40198, 2012-008H
Orbit
HEO
Country
Flag of CNCN / PRC
Related business
Manufacturer
CALT
Mission
Spacecraft
Bus & Motor
Unknown
Mass
Unknown
Launch date (UTC)
2012-02-24 (14 years ago)
Launch vehicle
Unknown
Launch site
Xichang Space Center, China (XSC)
Object type
Payload
Rocket body
Debris
Shape & HBR
Unknown shape, 0.3 m
Radar Cross Section
Medium (>0.1 m² and <1 m²)

Expand to show TLE details & history
Last TLE update: 2 weeks ago

TLE from 2 weeks ago
0 CZ-3C DEB
1 40198U 12008H   26225.44602695  .00000137  00000-0  20046-2 0  9991
2 40198  19.7992 347.4035 7255630 306.9274   6.7433  2.18876878100869
Epoch: 2026-08-13T10:42Z
TLE epoch observation values (Epoch: 2026-08-13T10:42:16.728Z)
Latitude
-0.0001°
Longitude
-135.02927°
Altitude
1,861.047 km
Speed
8.991 km/s
True Right ascension
23h 09m 42s
True Declination
0° 00' 00"
Sunlit
Object was in full shadow at epoch
Visualization orbit readout
Latitude
Unknown
Longitude
Unknown
Altitude
Unknown
Speed
Unknown
Apparent Right ascension
Unknown
Apparent Declination
Unknown
Sunlit
N/A
Visualization observer readout
Local Sidereal Time
21:34:35
Azimuth
Unknown
Elevation
Unknown
Doppler factor
Unknown
Orbital elements
Apogee altitude
36,867.643 km
Perigee altitude
499.759 km
Semi-major axis
25,061.838 km
Eccentricity
0.72556
Inclination
19.7992°
RAAN
347.4035°
Arg. of periapsis
306.9274°
True anomaly
53.97444°
Mean anomaly
6.7433°
Eccentric anomaly
22.95981°
Mean motion
0.54705 °/min
Orbital period
658.08 mins
BSTAR
0.0020046
Loading maneuver chart data...
Computing Atmospheric mass density...
Loading historical data...
Loading historical data...
Loading historical data...
Loading historical data...
Loading historical data...
Loading historical data...
Loading historical data...

Documentation

Showing up to 5 results
|